Location: Caltech
(34.1382°N, 118.1253°W)
Time: 16:19:52
(UTC-07:00)

Gurwin Techsat 1B - Visible Passes

Search period start: 24 May 2015 00:00
Search period end: 03 June 2015 00:00
Orbit: 812 x 815 km, 98.5° (Epoch: 23 May)

Date Brightness Start Highest point End Pass type
(mag) Time Alt. Az. Time Alt. Az. Time Alt. Az.
24 May 8.6 03:20:27 10° NNE 03:25:47 80° E 03:27:11 51° S visible
24 May 10.6 05:03:34 10° NW 05:05:11 11° WNW 05:06:27 10° WNW visible
25 May 9.3 02:57:54 10° NNE 03:03:01 47° E 03:04:13 40° SE visible
25 May 10.2 04:39:00 10° NNW 04:42:41 19° WNW 04:45:26 13° WSW visible
26 May 10.0 02:35:41 10° NE 02:40:09 28° E 02:41:14 26° ESE visible
26 May 9.6 04:15:30 10° N 04:20:07 30° WNW 04:22:27 21° WSW visible
27 May 10.7 02:13:59 10° NE 02:17:11 17° E 02:18:15 16° ESE visible
27 May 8.9 03:52:22 10° N 03:57:30 50° WNW 03:59:29 33° SW visible
28 May 8.5 03:29:29 10° N 03:34:50 83° WNW 03:36:30 46° SSW visible
29 May 9.0 03:06:51 10° NNE 03:12:05 59° E 03:13:31 44° SSE visible
29 May 10.4 04:48:33 10° NNW 04:51:38 15° WNW 04:54:28 10° W visible
30 May 9.7 02:44:28 10° NNE 02:49:16 35° E 02:50:32 31° SE visible
30 May 9.9 04:24:48 10° NNW 04:29:06 25° WNW 04:31:45 17° WSW visible
31 May 10.4 02:22:31 10° NE 02:26:21 21° E 02:27:33 19° ESE visible
31 May 9.2 04:01:33 10° N 04:06:30 40° WNW 04:08:46 27° WSW visible
01 Jun 11.0 02:01:36 10° ENE 02:03:19 12° E 02:04:34 11° ESE visible
01 Jun 8.6 03:38:34 10° N 03:43:52 68° WNW 03:45:47 39° SW visible
02 Jun 8.7 03:15:50 10° NNE 03:21:09 73° E 03:22:47 45° S visible
02 Jun 10.6 04:58:23 10° NW 05:00:35 12° WNW 05:02:29 10° W visible
